ウィルソン-ハリントン彗星

107P/(4015) Wilson-Harrington (2018)

English version
Home page
Updated on March 21, 2017

---------------------------------------------------------------------

・ プロフィール

・ 軌道要素

Epoch 2018 June 11.0 TT = JDT 2458280.5
T 2018 May 23.52711 TT                                  MPCW
q   0.9698819            (2000.0)            P               Q
n   0.23149237     Peri.   95.40727     +0.99806245     -0.03867434
a   2.6269084      Node   266.81559     +0.01631494     +0.91861579
e   0.6307896      Incl.    2.79806     +0.06004311     +0.39325479
P   4.26
From 852 observations 1949 Nov. 21-2015 Mar. 19, mean residual 0".5.

・ 光度変化

        H = 16.0  G = 0.15

---------------------------------------------------------------------

軌道要素はM.P.E.C. 2015-M77に掲載されたものです。
光度グラフはComet for Windowsで作成したものです。

---------------------------------------------------------------------

Copyright(C) Seiichi Yoshida (comet@aerith.net). All rights reserved.